Location: Newark
(40.0667°N, 18.0500°E)
Time: 11:36:34
(UTC+00:00)

N. Korean satellite - Pass Details

Date: 26 January 2020
Orbit: 456 x 505 km, 97.2° (Epoch: 23 February)

Event Time Altitude Azimuth Distance (km) Brightness Sun altitude
Rises 03:44:49 0° 29° (NNE) 2,545 10.5 -26.2°
Reaches altitude 10° 03:47:21 10° 48° (NE) 1,670 9.8 -25.7°
Maximum altitude 03:49:55 18° 94° (E) 1,239 9.4 -25.3°
Drops below altitude 10° 03:52:30 10° 140° (SE) 1,680 9.8 -24.8°
Sets 03:55:04 0° 159° (SSE) 2,565 10.6 -24.3°
